Vorticity
14 11 10 10 10 9 15 5 5 7 5 7 8 6 5 5 6 8 6 6 6 6 5 5 5 4 4 4 4 5 4 3 3 2 1 3 4 3 5 7 5 7 7 9 8
11 8 10 11 9 12 14 6 5 7 5 7 8 5 6 5 6 6 7 6 5 6 5 4 4 5 6 6 5 5 4 2 3 4 5 5 8 7 7 7 9 4 5 7 6
7 8 10 9 12 15 17 5 6 6 5 7 7 6 6 6 5 5 7 7 7 6 5 4 4 4 5 5 5 4 4 3 2 3 9 10 7 7 9 9 8 9 6 5 10
8 9 11 17 16 15 18 5 6 6 4 5 7 7 6 5 5 6 5 6 5 5 6 6 6 6 5 6 4 5 5 5 2 8 10 8 8 7 7 4 6 9 9 9 9
14 18 18 11 13 19 13 4 5 6 5 4 5 8 6 5 6 5 5 5 5 5 5 6 6 6 7 8 8 9 7 7 6 6 7 4 3 4 4 6 8 8 9 8 9
14 9 8 5 8 17 8 5 5 6 5 4 5 6 6 6 5 4 4 5 5 5 5 7 8 8 8 7 9 7 6 7 4 3 2 3 7 7 5 7 8 6 5 6 6
6 5 6 8 8 13 10 5 5 6 5 4 5 5 5 4 6 5 5 6 6 7 9 9 8 7 8 8 9 10 10 8 10 10 12 11 12 9 9 9 7 7 6 3 6
9 9 7 8 13 14 9 6 6 6 5 4 3 4 4 5 5 5 7 7 8 8 8 7 7 6 7 8 9 9 11 13 9 9 10 12 19 11 6 7 7 8 7 5 -0
9 9 8 10 13 11 8 7 7 6 5 4 4 5 4 4 5 6 7 8 7 7 7 7 6 7 9 9 8 8 10 10 10 7 6 10 12 9 8 9 8 6 5 8 10
10 9 10 10 11 7 6 6 6 5 4 3 3 5 5 6 7 8 7 5 5 6 6 7 9 10 8 7 6 8 8 10 8 8 8 10 15 12 10 10 12 17 14 12 12
13 15 12 6 3 2 3 3 5 7 8 8 7 6 6 6 6 6 6 9 10 10 9 5 3 5 7 7 6 5 6 6 8 7 6 3 1 -1 2 2 1 -1 3 7 0
11 10 10 9 9 9 9 9 7 6 4 5 5 6 9 10 9 10 9 6 4 7 9 8 9 9 6 6 6 4 3 5 6 4 6 2 4 2 1 0 -1 -2 -1 -3 -5
8 8 8 8 7 6 6 5 6 7 11 12 11 12 11 8 7 5 8 8 8 6 6 5 6 5 4 3 4 3 2 4 4 4 2 4 2 6 3 2 4 3 0 8 12
8 9 9 10 9 11 12 13 10 10 9 9 6 8 10 10 8 7 7 5 7 6 4 6 4 3 2 3 4 6 6 6 7 6 8 6 5 8 5 4 0 5 10 8 7
9 8 8 6 7 7 8 9 9 13 2 9 8 9 7 6 5 6 6 5 4 5 5 2 3 8 5 3 4 2 4 6 4 4 8 4 6 3 8 6 10 9 11 5 5
8 6 7 8 8 8 8 5 2 1 7 5 7 10 6 5 5 6 5 5 4 3 4 4 2 5 5 5 6 8 9 10 12 12 13 9 11 5 7 11 8 7 7 6 8
8 7 6 8 8 9 9 9 7 12 10 10 7 5 6 7 5 8 8 3 6 6 4 6 8 6 9 11 8 10 12 12 10 10 9 11 11 9 7 8 9 4 8 10 12
8 5 5 5 5 5 7 5 7 5 5 6 6 6 2 4 5 5 3 4 3 4 5 6 8 8 8 5 5 11 8 11 9 9 5 6 5 7 6 7 15 11 19 3 12
8 11 9 10 7 6 5 6 8 6 6 5 5 7 7 6 5 3 5 4 4 5 5 9 8 9 7 7 9 5 12 9 8 2 6 4 -1 -1 9 9 19 5 19 9 -2
10 9 9 10 9 8 7 8 8 8 9 10 9 8 6 6 3 4 5 3 5 4 4 4 8 9 5 6 6 6 5 6 4 5 6 5 5 4 13 10 5 16 13 0 1
9 8 8 10 7 8 10 10 9 7 4 4 6 4 4 4 4 5 5 5 4 4 3 4 6 4 9 9 8 8 5 5 3 3 4 5 1 8 9 -1 3 3 4 -2 -3
6 5 10 8 7 6 5 5 6 7 7 5 4 6 6 6 6 7 5 4 5 3 4 5 6 8 5 3 5 3 6 4 4 3 6 9 8 13 7 11 8 7 10 11 14
4 3 1 3 3 2 3 2 2 3 4 4 4 3 5 6 5 5 5 5 3 4 4 4 5 7 6 6 8 7 6 5 8 9 10 2 13 15 11 6 8 9 3 8 16
3 4 4 4 4 4 2 2 3 2 4 4 3 4 4 3 4 4 3 5 5 5 7 6 6 7 6 8 11 7 5 6 5 9 3 15 7 12 10 10 10 16 16 15 12
4 4 4 6 4 3 3 4 4 3 3 6 6 6 5 5 3 4 6 5 4 7 4 6 5 6 11 7 6 7 8 8 5 9 10 16 11 6 13 10 15 12 17 16 13
7 7 5 5 5 5 5 5 4 4 3 3 3 4 5 6 4 5 7 4 5 6 7 6 5 7 10 6 9 7 8 8 9 13 12 8 8 9 11 10 13 15 20 13 16
6 7 9 7 5 4 4 4 4 4 4 4 4 4 3 4 7 7 3 9 4 7 8 6 7 4 11 6 9 13 12 7 13 11 10 6 9 14 13 12 14 20 9 9 11
Height
5757 5770 5781 5791 5799 5808 5819 5829 5840 5848 5855 5861 5867 5872 5877 5881 5887 5892 5895 5898 5901 5903 5906 5908 5909 5912 5913 5914 5915 5917 5919 5917 5918 5920 5919 5918 5918 5916 5918 5918 5915 5912 5912 5916 5916
5763 5773 5783 5792 5800 5810 5820 5830 5840 5848 5856 5862 5867 5872 5877 5882 5887 5891 5894 5897 5900 5903 5905 5906 5908 5910 5912 5913 5913 5915 5916 5915 5915 5915 5916 5915 5915 5915 5915 5914 5910 5912 5907 5911 5912
5769 5778 5786 5794 5804 5813 5822 5832 5842 5850 5857 5863 5868 5873 5878 5883 5887 5891 5894 5897 5899 5901 5903 5905 5906 5908 5909 5910 5911 5912 5913 5912 5911 5912 5913 5912 5912 5911 5912 5910 5907 5908 5905 5903 5906
5775 5783 5791 5800 5808 5816 5824 5834 5843 5850 5857 5863 5868 5873 5879 5883 5888 5890 5893 5895 5898 5900 5902 5903 5904 5906 5906 5907 5908 5910 5909 5909 5910 5909 5908 5909 5910 5909 5908 5904 5904 5903 5901 5898 5897
5782 5790 5798 5806 5812 5819 5828 5837 5845 5852 5858 5864 5869 5874 5879 5883 5887 5890 5892 5895 5897 5899 5900 5901 5902 5903 5904 5906 5906 5907 5906 5906 5906 5905 5905 5906 5905 5905 5902 5902 5901 5897 5896 5894 5891
5790 5797 5804 5811 5817 5823 5831 5839 5847 5853 5860 5865 5870 5874 5879 5883 5886 5889 5891 5894 5896 5897 5898 5900 5900 5901 5902 5901 5903 5903 5904 5903 5902 5902 5901 5902 5902 5899 5898 5898 5896 5893 5889 5888 5885
5799 5805 5811 5816 5822 5828 5835 5842 5849 5855 5861 5866 5870 5874 5878 5882 5884 5888 5890 5893 5894 5896 5897 5898 5898 5899 5900 5898 5899 5899 5901 5899 5898 5896 5895 5896 5897 5894 5893 5892 5891 5889 5884 5881 5880
5808 5812 5817 5822 5827 5833 5839 5846 5852 5857 5862 5866 5871 5875 5878 5882 5884 5888 5890 5891 5893 5894 5895 5896 5896 5896 5896 5896 5896 5895 5896 5897 5892 5891 5890 5892 5895 5890 5885 5883 5882 5880 5877 5875 5867
5815 5819 5823 5828 5832 5837 5843 5849 5854 5859 5863 5867 5871 5875 5879 5882 5885 5887 5889 5890 5891 5891 5893 5893 5893 5893 5893 5893 5893 5890 5891 5891 5890 5885 5884 5886 5889 5884 5879 5877 5875 5871 5868 5868 5868
5822 5825 5829 5833 5838 5842 5847 5852 5857 5860 5865 5869 5873 5877 5880 5882 5883 5885 5886 5887 5888 5889 5890 5889 5889 5889 5889 5889 5890 5888 5887 5886 5884 5883 5878 5877 5880 5877 5873 5870 5869 5868 5865 5864 5863
5828 5831 5834 5838 5842 5846 5851 5855 5861 5865 5866 5870 5873 5875 5878 5880 5881 5883 5884 5885 5886 5887 5887 5887 5887 5887 5886 5886 5886 5885 5883 5882 5880 5877 5876 5873 5874 5871 5868 5865 5864 5862 5861 5858 5856
5834 5837 5840 5843 5847 5851 5854 5857 5861 5865 5867 5869 5872 5874 5876 5878 5880 5881 5882 5883 5883 5884 5885 5885 5885 5884 5883 5881 5880 5879 5877 5877 5876 5872 5870 5867 5865 5865 5860 5857 5855 5853 5851 5849 5847
5840 5842 5845 5848 5850 5853 5856 5859 5861 5864 5867 5869 5871 5873 5875 5877 5879 5879 5881 5881 5882 5882 5882 5882 5883 5881 5879 5877 5876 5874 5870 5870 5868 5867 5863 5860 5858 5855 5852 5847 5842 5839 5838 5837 5834
5845 5847 5849 5850 5854 5855 5858 5860 5863 5865 5868 5871 5872 5874 5875 5876 5878 5878 5879 5880 5880 5880 5879 5879 5877 5876 5874 5872 5870 5869 5865 5862 5859 5855 5854 5850 5849 5842 5838 5835 5829 5825 5822 5820 5819
5850 5851 5852 5854 5855 5857 5860 5862 5864 5866 5869 5871 5872 5873 5874 5876 5877 5877 5877 5877 5877 5875 5877 5874 5874 5873 5870 5867 5862 5861 5858 5855 5850 5846 5843 5839 5837 5835 5827 5820 5816 5812 5808 5803 5800
5853 5854 5855 5857 5858 5859 5861 5863 5865 5868 5868 5870 5870 5871 5873 5873 5874 5874 5874 5874 5873 5872 5871 5870 5868 5867 5864 5859 5855 5852 5850 5847 5841 5838 5835 5832 5827 5819 5813 5808 5801 5797 5794 5789 5785
5856 5856 5857 5858 5859 5860 5862 5863 5866 5865 5868 5868 5868 5869 5870 5871 5871 5871 5872 5870 5869 5869 5867 5866 5864 5862 5859 5854 5847 5843 5840 5836 5832 5828 5825 5819 5814 5809 5799 5795 5792 5787 5781 5776 5771
5857 5858 5858 5859 5859 5860 5862 5864 5864 5864 5865 5866 5867 5867 5868 5868 5868 5867 5868 5867 5866 5864 5862 5859 5856 5852 5850 5845 5840 5836 5832 5828 5821 5820 5817 5814 5805 5798 5792 5785 5780 5772 5766 5759 5752
5858 5858 5859 5859 5860 5861 5862 5862 5863 5863 5864 5864 5864 5864 5864 5865 5865 5865 5863 5862 5860 5858 5856 5851 5849 5844 5840 5835 5833 5826 5822 5818 5813 5809 5803 5800 5796 5784 5775 5772 5766 5757 5747 5737 5732
5858 5859 5859 5860 5860 5861 5861 5861 5861 5861 5861 5861 5861 5862 5862 5862 5862 5860 5859 5857 5854 5852 5848 5845 5843 5837 5832 5829 5823 5818 5815 5808 5802 5796 5788 5787 5779 5775 5765 5757 5749 5740 5730 5722 5712
5858 5858 5859 5859 5859 5860 5859 5859 5860 5860 5859 5859 5859 5858 5858 5857 5856 5855 5853 5851 5848 5844 5840 5836 5834 5829 5824 5820 5815 5810 5804 5798 5792 5784 5775 5774 5771 5765 5755 5744 5735 5724 5716 5705 5697
5857 5857 5857 5858 5859 5858 5858 5858 5858 5857 5857 5856 5855 5855 5854 5852 5850 5848 5847 5843 5841 5838 5834 5828 5825 5821 5817 5811 5804 5800 5793 5785 5777 5771 5760 5753 5759 5750 5741 5732 5720 5706 5695 5685 5675
5856 5855 5856 5856 5856 5855 5855 5855 5855 5855 5854 5853 5851 5850 5848 5847 5845 5842 5839 5836 5833 5829 5825 5821 5816 5810 5805 5801 5794 5789 5782 5774 5764 5758 5754 5734 5738 5729 5726 5716 5707 5689 5676 5666 5654
5854 5853 5853 5853 5853 5852 5852 5852 5852 5851 5850 5849 5847 5845 5843 5840 5838 5836 5833 5829 5825 5821 5815 5810 5806 5801 5796 5789 5782 5777 5770 5760 5749 5742 5737 5729 5711 5714 5702 5696 5687 5673 5660 5646 5632
5850 5849 5848 5849 5848 5848 5848 5847 5846 5845 5844 5843 5842 5840 5837 5834 5831 5827 5824 5820 5817 5812 5808 5803 5797 5791 5785 5778 5771 5766 5760 5749 5740 5729 5717 5720 5703 5690 5684 5676 5663 5650 5639 5626 5614
5844 5844 5843 5843 5842 5842 5841 5841 5840 5839 5838 5837 5835 5832 5829 5826 5823 5819 5815 5810 5806 5800 5795 5790 5784 5778 5774 5766 5760 5755 5747 5737 5728 5716 5705 5694 5691 5677 5669 5657 5642 5630 5617 5604 5591
5837 5837 5837 5836 5836 5835 5834 5833 5832 5831 5831 5828 5826 5824 5821 5818 5814 5810 5805 5800 5795 5789 5783 5777 5771 5765 5761 5753 5746 5742 5732 5725 5716 5702 5692 5681 5674 5662 5653 5642 5626 5613 5598 5585 5574